Orbital Elements at Epoch 2459200.5 (2020-Dec-17.0) TDB
Reference: JPL 12 (heliocentric ecliptic J2000)
Element | Value | Uncertainty (1-sigma) | Units |
e | .2339407440464631 | 5.8985e-08 | |
a | 2.595781106716186 | 1.9946e-08 | au |
q | 1.98852214322925 | 1.5813e-07 | au |
i | 6.264274939456781 | 6.6391e-06 | deg |
node | 295.8823780175735 | 5.3309e-05 | deg |
peri | 37.32178848717341 | 5.5525e-05 | deg |
M | 243.3691011814514 | 2.2309e-05 | deg |
tp | 2459695.393385530970 (2022-Apr-25.89338553) | 9.9208e-05 | TDB |
period | 1527.567913785253 4.18 | 1.7606e-05 4.82e-08 | d yr |
n | .2356687363954471 | 2.7163e-09 | deg/d |
Q | 3.203040070203122 | 2.4612e-08 | au |
|
| | Orbit Determination Parameters
Additional Information
|